| time (UTC) | temp C | wind direction | speed KPH | gust KPH | rain 1hr cm | rain 24hr cm | rain mn cm | humidity % | barometer mb |
| 20260503230012 | 24 | 39 | 3.2 | 9.7 | 0.00 | 0.00 | 0.00 | 47 | 1012.8 |
| 20260503224513 | 24 | 34 | 0.0 | 11.3 | 0.00 | 0.00 | 0.00 | 45 | 1012.9 |
| 20260503223008 | 24 | 340 | 1.6 | 11.3 | 0.00 | 0.00 | 0.00 | 46 | 1013.1 |
| 20260503221506 | 23 | 18 | 3.2 | 9.7 | 0.00 | 0.00 | 0.00 | 45 | 1013.3 |
| 20260503220019 | 23 | 18 | 0.0 | 14.5 | 0.00 | 0.00 | 0.00 | 46 | 1013.4 |
| 20260503214502 | 23 | 37 | 1.6 | 14.5 | 0.00 | 0.00 | 0.00 | 48 | 1013.5 |
| 20260503213111 | 22 | 358 | 4.8 | 16.1 | 0.00 | 0.00 | 0.00 | 47 | 1013.6 |
| 20260503211558 | 23 | 11 | 3.2 | 11.3 | 0.00 | 0.00 | 0.00 | 49 | 1013.7 |
| 20260503204554 | 22 | 8 | 3.2 | 14.5 | 0.00 | 0.00 | 0.00 | 49 | 1014.2 |
| 20260503203055 | 22 | 20 | 4.8 | 14.5 | 0.00 | 0.00 | 0.00 | 51 | 1014.5 |
| 20260503201548 | 22 | 22 | 4.8 | 14.5 | 0.00 | 0.00 | 0.00 | 52 | 1014.8 |
| 20260503200050 | 22 | 346 | 1.6 | 8.0 | 0.00 | 0.00 | 0.00 | 54 | 1015.0 |
| 20260503194545 | 22 | 38 | 3.2 | 9.7 | 0.00 | 0.00 | 0.00 | 53 | 1015.0 |
| 20260503193049 | 21 | 31 | 3.2 | 11.3 | 0.00 | 0.00 | 0.00 | 52 | 1015.1 |
| 20260503191543 | 22 | 340 | 3.2 | 9.7 | 0.00 | 0.00 | 0.00 | 54 | 1015.2 |
| 20260503190046 | 21 | 30 | 3.2 | 12.9 | 0.00 | 0.00 | 0.00 | 53 | 1015.3 |
| 20260503184542 | 21 | 6 | 1.6 | 11.3 | 0.00 | 0.00 | 0.00 | 54 | 1015.5 |
| 20260503183051 | 21 | 24 | 3.2 | 12.9 | 0.00 | 0.00 | 0.00 | 53 | 1015.5 |
| 20260503181533 | 20 | 48 | 3.2 | 11.3 | 0.00 | 0.00 | 0.00 | 54 | 1015.7 |
| 20260503180031 | 20 | 30 | 1.6 | 8.0 | 0.00 | 0.00 | 0.00 | 54 | 1015.7 |
| 20260503174530 | 20 | 69 | 0.0 | 11.3 | 0.00 | 0.00 | 0.00 | 57 | 1015.7 |
| 20260503173030 | 20 | 37 | 1.6 | 9.7 | 0.00 | 0.00 | 0.00 | 57 | 1015.8 |
| 20260503171527 | 20 | 6 | 1.6 | 8.0 | 0.00 | 0.00 | 0.00 | 57 | 1016.0 |
| 20260503081554 | 19 | 288 | 0.0 | 0.0 | 0.00 | 0.00 | 0.00 | 50 | 1016.0 |
| 20260503071529 | 18 | 288 | 0.0 | 1.6 | 0.00 | 0.00 | 0.00 | 58 | 1016.0 |
| 20260503054523 | 18 | 199 | 0.0 | 0.0 | 0.00 | 0.00 | 0.00 | 60 | 1015.9 |
| 20260503053023 | 18 | 199 | 0.0 | 1.6 | 0.00 | 0.00 | 0.00 | 59 | 1015.9 |
| 20260503051522 | 18 | 250 | 0.0 | 1.6 | 0.00 | 0.00 | 0.00 | 58 | 1016.0 |
| 20260503050030 | 18 | 230 | 0.0 | 1.6 | 0.00 | 0.00 | 0.00 | 59 | 1015.9 |
| 20260503044520 | 17 | 189 | 0.0 | 1.6 | 0.00 | 0.00 | 0.00 | 58 | 1015.8 |
| 20260503043020 | 17 | 228 | 0.0 | 1.6 | 0.00 | 0.00 | 0.00 | 58 | 1015.6 |
| 20260503041520 | 17 | 224 | 0.0 | 3.2 | 0.00 | 0.00 | 0.00 | 60 | 1015.6 |
| 20260503040020 | 17 | 215 | 0.0 | 1.6 | 0.00 | 0.00 | 0.00 | 63 | 1015.4 |
| 20260503034532 | 17 | 205 | 0.0 | 0.0 | 0.00 | 0.00 | 0.00 | 61 | 1015.1 |
| 20260503033026 | 18 | 199 | 0.0 | 0.0 | 0.00 | 0.00 | 0.00 | 61 | 1015.0 |
| 20260503031518 | 18 | 241 | 0.0 | 1.6 | 0.00 | 0.00 | 0.00 | 59 | 1014.9 |
| 20260503030018 | 19 | 241 | 0.0 | 3.2 | 0.00 | 0.00 | 0.00 | 58 | 1014.9 |
| 20260503024516 | 20 | 207 | 0.0 | 1.6 | 0.00 | 0.00 | 0.00 | 57 | 1014.9 |
| 20260503023015 | 21 | 216 | 0.0 | 3.2 | 0.00 | 0.00 | 0.00 | 54 | 1015.0 |
| 20260503021515 | 21 | 207 | 0.0 | 3.2 | 0.00 | 0.00 | 0.00 | 52 | 1014.9 |
| 20260503020014 | 22 | 172 | 0.0 | 4.8 | 0.00 | 0.00 | 0.00 | 53 | 1014.8 |
| 20260503014519 | 22 | 225 | 0.0 | 4.8 | 0.00 | 0.00 | 0.00 | 53 | 1014.9 |
| 20260503013021 | 23 | 219 | 0.0 | 3.2 | 0.00 | 0.00 | 0.00 | 51 | 1015.1 |
| 20260503011509 | 23 | 179 | 0.0 | 4.8 | 0.00 | 0.00 | 0.00 | 51 | 1015.2 |
| 20260503010007 | 23 | 136 | 0.0 | 3.2 | 0.00 | 0.00 | 0.00 | 52 | 1015.4 |
| 20260503004505 | 24 | 224 | 0.0 | 3.2 | 0.00 | 0.00 | 0.00 | 52 | 1015.5 |
| 20260503003003 | 23 | 192 | 0.0 | 4.8 | 0.00 | 0.00 | 0.00 | 54 | 1015.6 |
| 20260503001501 | 23 | 212 | 1.6 | 4.8 | 0.00 | 0.00 | 0.00 | 54 | 1015.8 |
| 20260503000108 | 22 | 169 | 0.0 | 3.2 | 0.00 | 0.00 | 0.00 | 55 | 1015.8 |
| 20260502234614 | 22 | 221 | 0.0 | 3.2 | 0.00 | 0.00 | 0.00 | 56 | 1016.2 |
| 20260502233109 | 22 | 200 | 0.0 | 4.8 | 0.00 | 0.00 | 0.00 | 56 | 1016.2 |
| 20260502231606 | 22 | 248 | 0.0 | 4.8 | 0.00 | 0.00 | 0.00 | 57 | 1016.6 |